Hourly Weather Holodnica

Today, 11 April, Sunday

Time Temperature Precipitation Wind Pressure Humidity
00:00 +9°C° 0 mm 3 mps 750 mmHg 68%
01:00 +9°C° 0 mm 3 mps 750 mmHg 71%
02:00 +8°C° 0 mm 3 mps 751 mmHg 72%
03:00 +8°C° 0 mm 3 mps 751 mmHg 73%
04:00 +8°C° 0 mm 3 mps 751 mmHg 74%
05:00 +8°C° 0 mm 3 mps 751 mmHg 74%
06:00 +8°C° 0 mm 3 mps 751 mmHg 73%
07:00 +8°C° 0 mm 4 mps 751 mmHg 71%
08:00 +8°C° 0 mm 4 mps 752 mmHg 70%
09:00 +10°C° 0 mm 5 mps 752 mmHg 63%
10:00 +13°C° 0 mm 6 mps 752 mmHg 57%
11:00 +15°C° 0 mm 6 mps 752 mmHg 51%
12:00 +15°C° 0 mm 7 mps 752 mmHg 47%
13:00 +16°C° 0 mm 7 mps 752 mmHg 44%
14:00 +17°C° 0 mm 7 mps 751 mmHg 41%
15:00 +17°C° 0 mm 7 mps 751 mmHg 42%
16:00 +17°C° 0 mm 7 mps 751 mmHg 43%
17:00 +17°C° 0 mm 6 mps 751 mmHg 45%
18:00 +15°C° 0 mm 6 mps 751 mmHg 47%
19:00 +14°C° 0 mm 6 mps 751 mmHg 50%
20:00 +13°C° 0 mm 6 mps 751 mmHg 52%
21:00 +11°C° 0 mm 6 mps 751 mmHg 52%
22:00 +11°C° 0 mm 6 mps 752 mmHg 52%
23:00 +10°C° 0 mm 6 mps 752 mmHg 52%

Tomorrow, 12 April, Monday

Time Temperature Precipitation Wind Pressure Humidity
00:00 +10°C° 0 mm 6 mps 752 mmHg 53%
01:00 +9°C° 0 mm 6 mps 751 mmHg 54%
02:00 +9°C° 0 mm 5 mps 751 mmHg 55%
03:00 +8°C° 0 mm 5 mps 751 mmHg 57%
04:00 +8°C° 0 mm 5 mps 751 mmHg 58%
05:00 +7°C° 0 mm 5 mps 751 mmHg 60%
06:00 +7°C° 0 mm 5 mps 751 mmHg 62%
07:00 +7°C° 0 mm 5 mps 751 mmHg 64%
08:00 +7°C° 0 mm 5 mps 751 mmHg 66%
09:00 +8°C° 0 mm 5 mps 751 mmHg 66%
10:00 +9°C° 0 mm 5 mps 751 mmHg 67%
11:00 +10°C° 0 mm 5 mps 751 mmHg 68%
12:00 +12°C° 0 mm 5 mps 750 mmHg 65%
13:00 +13°C° 0 mm 5 mps 750 mmHg 63%
14:00 +15°C° 0 mm 5 mps 750 mmHg 60%
15:00 +14°C° 0.1 mm 5 mps 749 mmHg 64%
16:00 +14°C° 0.1 mm 4 mps 749 mmHg 69%
17:00 +13°C° 0.1 mm 4 mps 749 mmHg 74%
18:00 +12°C° 0.1 mm 3 mps 749 mmHg 77%
19:00 +12°C° 0.1 mm 3 mps 750 mmHg 80%
20:00 +11°C° 0.1 mm 3 mps 750 mmHg 83%
21:00 +12°C° 0 mm 2 mps 750 mmHg 85%
22:00 +10°C° 0 mm 2 mps 750 mmHg 87%
23:00 +10°C° 0 mm 2 mps 750 mmHg 89%

Day after tomorrow, 13 April, Tuesday

Time Temperature Precipitation Wind Pressure Humidity
00:00 +9°C° 0 mm 2 mps 750 mmHg 90%
01:00 +9°C° 0 mm 2 mps 751 mmHg 92%
02:00 +8°C° 0 mm 3 mps 751 mmHg 93%
03:00 +7°C° 0 mm 3 mps 751 mmHg 92%
04:00 +6°C° 0 mm 4 mps 751 mmHg 92%
05:00 +5°C° 0 mm 4 mps 751 mmHg 91%
06:00 +5°C° 0 mm 4 mps 752 mmHg 89%
07:00 +5°C° 0 mm 5 mps 752 mmHg 88%
08:00 +3°C° 0 mm 5 mps 752 mmHg 86%
09:00 +3°C° 0 mm 5 mps 752 mmHg 85%
10:00 +3°C° 0 mm 5 mps 752 mmHg 84%
11:00 +3°C° 0 mm 5 mps 753 mmHg 83%
12:00 +3°C° 0.4 mm 5 mps 753 mmHg 85%
13:00 +3°C° 0.4 mm 6 mps 753 mmHg 87%
14:00 +2°C° 0.4 mm 6 mps 753 mmHg 89%
15:00 +2°C° 0.3 mm 6 mps 753 mmHg 90%
16:00 +2°C° 0.3 mm 6 mps 753 mmHg 91%
17:00 +1°C° 0.3 mm 6 mps 752 mmHg 92%
18:00 +1°C° 0.6 mm 6 mps 752 mmHg 92%
19:00 +1°C° 0.6 mm 6 mps 752 mmHg 93%
20:00 +1°C° 0.6 mm 6 mps 753 mmHg 94%
21:00 +1°C° 0.7 mm 6 mps 752 mmHg 94%
22:00 +1°C° 0.7 mm 6 mps 752 mmHg 94%
23:00 0°C° 0.7 mm 7 mps 752 mmHg 95%

14 April, Wednesday

Time Temperature Precipitation Wind Pressure Humidity
00:00 -1°C° 0.4 mm 7 mps 751 mmHg 95%
01:00 -1°C° 0.4 mm 7 mps 751 mmHg 95%
02:00 -1°C° 0.4 mm 7 mps 751 mmHg 95%
03:00 -1°C° 0.6 mm 7 mps 751 mmHg 95%
04:00 -1°C° 0.6 mm 7 mps 750 mmHg 96%
05:00 -2°C° 0.6 mm 7 mps 750 mmHg 96%
06:00 -2°C° 0.4 mm 7 mps 750 mmHg 96%
07:00 -2°C° 0.4 mm 7 mps 750 mmHg 96%
08:00 -2°C° 0.4 mm 7 mps 750 mmHg 96%
09:00 -1°C° 0.3 mm 7 mps 750 mmHg 96%
10:00 -1°C° 0.3 mm 7 mps 750 mmHg 96%
11:00 -1°C° 0.3 mm 7 mps 750 mmHg 96%
12:00 -1°C° 0.4 mm 7 mps 750 mmHg 96%
13:00 -1°C° 0.4 mm 7 mps 749 mmHg 96%
14:00 -1°C° 0.4 mm 7 mps 749 mmHg 96%
15:00 -1°C° 0.7 mm 7 mps 749 mmHg 96%
16:00 -1°C° 0.7 mm 7 mps 749 mmHg 97%
17:00 -1°C° 0.7 mm 6 mps 749 mmHg 97%
18:00 -2°C° 0.9 mm 6 mps 749 mmHg 97%
19:00 -2°C° 0.9 mm 6 mps 749 mmHg 97%
20:00 -2°C° 0.9 mm 6 mps 749 mmHg 98%
21:00 -1°C° 0.8 mm 5 mps 749 mmHg 98%
22:00 -1°C° 0.8 mm 5 mps 749 mmHg 98%
23:00 -1°C° 0.8 mm 4 mps 748 mmHg 98%

15 April, Thursday

Time Temperature Precipitation Wind Pressure Humidity
00:00 0°C° 0.2 mm 4 mps 748 mmHg 98%
01:00 0°C° 0.2 mm 4 mps 748 mmHg 98%
02:00 0°C° 0.2 mm 4 mps 748 mmHg 98%
03:00 0°C° 0.1 mm 4 mps 748 mmHg 98%
04:00 0°C° 0.1 mm 4 mps 748 mmHg 98%
05:00 +1°C° 0.1 mm 4 mps 748 mmHg 98%
06:00 +1°C° 0 mm 4 mps 748 mmHg 98%
07:00 +1°C° 0 mm 4 mps 749 mmHg 98%
08:00 +2°C° 0 mm 5 mps 749 mmHg 98%
09:00 +2°C° 0 mm 5 mps 749 mmHg 97%
10:00 +3°C° 0 mm 5 mps 749 mmHg 95%
11:00 +3°C° 0 mm 5 mps 750 mmHg 94%
12:00 +3°C° 0.2 mm 5 mps 750 mmHg 94%
13:00 +5°C° 0.2 mm 5 mps 750 mmHg 93%
14:00 +5°C° 0.2 mm 5 mps 750 mmHg 92%
15:00 +5°C° 0.4 mm 5 mps 750 mmHg 92%
16:00 +5°C° 0.4 mm 5 mps 750 mmHg 92%
17:00 +3°C° 0.4 mm 5 mps 750 mmHg 92%
18:00 +3°C° 0.6 mm 5 mps 751 mmHg 92%
19:00 +3°C° 0.6 mm 6 mps 751 mmHg 92%
20:00 +3°C° 0.6 mm 6 mps 751 mmHg 92%
21:00 +2°C° 0.1 mm 6 mps 751 mmHg 92%
22:00 +2°C° 0.1 mm 6 mps 751 mmHg 91%
23:00 +2°C° 0.1 mm 6 mps 751 mmHg 90%

16 April, Friday

Time Temperature Precipitation Wind Pressure Humidity
00:00 +2°C° 0.1 mm 5 mps 751 mmHg 91%
01:00 +2°C° 0.1 mm 5 mps 751 mmHg 91%
02:00 +2°C° 0.1 mm 5 mps 751 mmHg 92%
03:00 +2°C° 0.1 mm 5 mps 751 mmHg 92%
04:00 +2°C° 0.1 mm 5 mps 751 mmHg 93%
05:00 +2°C° 0.1 mm 5 mps 751 mmHg 93%
06:00 +2°C° 0 mm 5 mps 752 mmHg 93%
07:00 +2°C° 0 mm 5 mps 752 mmHg 93%
08:00 +2°C° 0 mm 5 mps 752 mmHg 92%
09:00 +2°C° 0 mm 5 mps 753 mmHg 92%
10:00 +2°C° 0 mm 5 mps 753 mmHg 92%
11:00 +2°C° 0 mm 5 mps 753 mmHg 91%
12:00 +3°C° 0 mm 5 mps 753 mmHg 90%
13:00 +3°C° 0 mm 5 mps 754 mmHg 88%
14:00 +5°C° 0 mm 5 mps 754 mmHg 87%
15:00 +5°C° 0 mm 5 mps 754 mmHg 85%
16:00 +4°C° 0 mm 6 mps 755 mmHg 84%
17:00 +3°C° 0 mm 6 mps 755 mmHg 82%
18:00 +3°C° 0.1 mm 6 mps 755 mmHg 86%
19:00 +3°C° 0.1 mm 6 mps 756 mmHg 90%
20:00 +2°C° 0.1 mm 6 mps 756 mmHg 95%
21:00 +2°C° 0.1 mm 5 mps 757 mmHg 92%
22:00 +4°C° 0.1 mm 4 mps 757 mmHg 90%
23:00 +4°C° 0.1 mm 4 mps 757 mmHg 87%
Show more